Temp
22 22 22 21 20 20 20 20 20 19 19 19 19 19 18 18 18 18 18 18 17 17 16 16 16 16 16 15 16 16 15 15 16 16 16 16 16 16 16 16 16 16
22 22 22 21 21 20 20 20 19 19 19 19 19 19 18 18 18 18 18 18 17 17 16 16 16 16 15 15 15 15 15 15 15 16 16 16 15 15 15 16 16 15
22 22 22 22 21 20 20 20 19 19 19 19 19 18 18 18 18 18 17 17 17 16 16 16 16 15 15 15 15 15 15 15 15 16 16 15 15 15 15 16 16 16
22 22 23 22 21 20 20 20 19 19 19 19 19 18 18 18 18 17 17 17 17 16 16 16 16 16 15 15 15 15 15 15 15 16 16 16 15 15 15 15 15 15
21 22 23 22 21 20 20 20 19 19 19 19 19 19 19 19 18 18 18 17 17 16 16 16 16 16 16 15 15 15 15 15 15 15 16 16 16 16 16 15 15 15
21 22 22 22 22 20 20 20 19 19 19 19 19 20 19 19 19 19 19 18 17 17 16 16 16 16 16 16 15 15 15 15 15 16 16 16 16 16 16 16 16 15
21 22 22 22 21 20 20 20 19 19 19 19 20 20 20 20 21 21 21 20 19 18 17 17 16 17 17 16 15 15 15 15 15 16 16 16 15 15 15 16 15 15
21 22 22 22 21 21 20 20 20 20 20 20 20 21 21 22 23 23 22 21 20 20 19 18 17 17 17 17 16 15 15 15 15 15 15 15 15 15 15 15 15 15
21 22 22 22 21 21 20 21 21 21 21 21 22 22 23 23 23 23 22 21 21 21 20 18 17 17 17 17 17 16 15 15 15 15 15 15 15 15 15 15 15 15
22 22 22 22 22 21 21 21 22 22 22 22 22 23 24 24 24 23 22 21 21 21 21 19 18 17 17 17 17 17 16 16 15 15 15 15 15 15 15 15 15 15
22 22 21 22 22 21 21 22 22 22 22 22 23 24 25 24 24 24 23 21 21 21 21 20 19 18 18 17 17 16 16 16 15 15 15 15 16 16 15 15 15 15
22 21 22 23 23 21 21 22 22 22 23 23 24 24 25 24 24 24 23 21 21 20 21 20 20 19 18 18 16 15 16 16 15 15 15 15 16 16 15 15 15 15
22 22 22 23 23 21 22 22 22 23 24 24 24 24 24 24 24 23 23 22 21 21 21 20 20 19 19 18 16 15 16 17 16 15 15 15 16 16 15 15 15 15
23 22 22 23 23 22 23 23 23 23 24 25 25 24 24 24 23 23 23 22 21 21 20 20 20 19 18 17 16 16 16 17 16 16 15 15 16 16 15 15 15 15
23 22 21 22 23 23 23 24 23 23 24 25 24 24 24 24 24 23 22 22 21 21 20 19 19 19 18 17 16 16 17 17 17 17 16 16 16 16 15 15 15 15
22 22 21 22 22 23 24 24 24 24 24 25 24 24 24 24 24 23 22 22 22 21 20 19 19 19 19 18 17 16 16 17 17 17 16 16 16 16 15 15 15 15
22 22 22 22 22 23 23 23 23 24 24 24 24 24 23 24 24 23 22 22 22 21 21 20 19 18 18 18 17 16 16 16 16 16 16 16 16 16 15 15 15 15
22 22 22 22 22 22 22 22 22 22 23 23 23 23 23 23 23 22 22 22 22 21 21 20 19 18 18 18 17 16 16 16 16 16 16 16 16 16 15 15 15 15
22 22 22 22 23 22 22 21 21 21 22 22 22 22 22 22 23 22 21 21 21 21 20 19 18 18 18 17 17 16 16 16 16 16 15 15 16 16 15 15 15 15
23 23 23 23 23 22 21 20 20 20 21 21 21 21 21 22 22 21 21 21 21 20 19 18 17 16 17 17 17 17 16 16 16 15 15 15 15 15 15 15 15 15
23 23 23 23 22 21 20 20 20 19 20 20 20 21 21 21 21 21 21 20 20 19 18 17 16 16 16 16 17 17 16 16 15 15 15 15 15 15 15 15 15 14
22 22 22 22 22 21 20 20 19 19 19 19 20 20 20 20 20 20 20 20 19 19 18 16 16 16 16 16 17 16 16 15 15 15 15 15 15 15 15 15 15 14
22 22 22 21 21 20 20 20 19 19 19 19 19 19 18 19 19 19 19 19 19 18 17 17 16 15 16 16 16 16 15 15 15 15 15 15 15 15 15 15 15 15
22 22 21 20 20 20 20 20 19 19 18 18 19 18 18 18 18 18 18 18 17 17 16 16 16 15 16 16 16 15 15 15 15 15 15 15 15 15 15 15 15 15
22 22 21 20 21 21 20 20 19 18 18 18 18 18 18 18 17 17 17 17 16 16 16 15 15 15 15 15 15 15 15 15 15 15 15 15 15 15 15 15 15 15
22 21 21 21 21 20 20 19 19 18 17 17 17 17 17 17 17 16 16 16 16 16 15 15 15 15 15 15 15 15 15 15 15 15 15 14 14 14 15 15 15 15
Height
1534 1536 1538 1540 1542 1544 1546 1548 1549 1551 1553 1554 1555 1556 1557 1558 1560 1561 1562 1562 1562 1562 1562 1561 1561 1561 1561 1562 1562 1562 1563 1564 1564 1565 1565 1565 1565 1565 1566 1566 1566 1566
1531 1534 1536 1538 1540 1542 1544 1546 1548 1550 1552 1554 1555 1556 1557 1558 1559 1560 1560 1561 1561 1561 1560 1560 1560 1560 1560 1561 1561 1561 1561 1562 1562 1563 1564 1564 1563 1564 1564 1564 1564 1564
1529 1531 1533 1536 1537 1540 1542 1545 1547 1549 1551 1553 1554 1555 1556 1557 1558 1558 1559 1560 1560 1559 1559 1559 1559 1559 1559 1559 1560 1559 1559 1560 1560 1561 1562 1562 1562 1562 1562 1563 1563 1563
1526 1528 1531 1533 1535 1538 1541 1544 1546 1547 1550 1552 1553 1554 1554 1555 1556 1557 1557 1557 1558 1558 1558 1558 1558 1558 1558 1558 1558 1558 1558 1558 1559 1559 1560 1560 1561 1561 1561 1561 1561 1562
1523 1526 1528 1531 1534 1537 1539 1542 1545 1546 1549 1551 1551 1551 1552 1553 1554 1554 1554 1554 1554 1555 1556 1556 1555 1556 1556 1556 1556 1557 1557 1557 1557 1557 1558 1559 1559 1560 1560 1561 1561 1560
1521 1523 1526 1529 1532 1535 1538 1541 1543 1544 1547 1548 1547 1548 1549 1550 1550 1549 1548 1548 1548 1549 1551 1552 1551 1551 1552 1553 1554 1555 1556 1556 1556 1557 1557 1557 1558 1558 1559 1560 1560 1559
1518 1520 1523 1527 1530 1533 1536 1538 1540 1541 1543 1543 1543 1544 1545 1544 1542 1540 1539 1539 1541 1542 1543 1545 1546 1547 1548 1549 1551 1553 1554 1555 1555 1556 1556 1556 1556 1556 1556 1557 1558 1557
1515 1518 1521 1525 1528 1530 1533 1534 1536 1537 1537 1538 1539 1539 1538 1536 1533 1531 1531 1532 1534 1535 1537 1540 1542 1544 1545 1546 1548 1550 1552 1553 1553 1554 1554 1554 1554 1554 1554 1555 1555 1555
1513 1515 1518 1521 1523 1525 1527 1528 1529 1530 1531 1533 1533 1532 1529 1527 1526 1526 1526 1528 1530 1531 1533 1536 1539 1541 1543 1544 1545 1547 1548 1549 1551 1551 1551 1551 1551 1551 1552 1552 1552 1552
1509 1512 1514 1516 1518 1519 1519 1520 1521 1522 1524 1526 1526 1524 1521 1519 1521 1523 1523 1524 1527 1529 1530 1532 1536 1538 1540 1541 1542 1543 1545 1546 1547 1548 1549 1549 1549 1549 1549 1550 1550 1550
1505 1507 1508 1510 1512 1513 1513 1514 1515 1516 1518 1518 1516 1516 1515 1515 1518 1520 1520 1521 1524 1526 1527 1529 1532 1534 1536 1539 1541 1541 1542 1543 1544 1545 1546 1546 1546 1546 1547 1548 1548 1549
1501 1503 1502 1504 1507 1509 1508 1509 1510 1511 1512 1511 1509 1510 1512 1513 1516 1517 1518 1519 1521 1524 1526 1527 1529 1531 1533 1536 1539 1540 1540 1541 1542 1544 1544 1544 1544 1544 1545 1545 1546 1546
1495 1497 1496 1498 1501 1503 1502 1503 1504 1505 1506 1505 1505 1508 1510 1512 1514 1515 1516 1517 1519 1522 1524 1525 1526 1528 1529 1533 1536 1539 1539 1538 1539 1541 1542 1542 1541 1542 1543 1543 1543 1544
1489 1491 1492 1493 1496 1497 1497 1498 1499 1500 1501 1502 1503 1505 1507 1509 1511 1513 1514 1515 1517 1519 1521 1523 1524 1525 1526 1529 1532 1535 1537 1536 1536 1538 1539 1539 1539 1539 1540 1541 1541 1543
1485 1488 1489 1489 1490 1491 1492 1493 1494 1496 1498 1499 1500 1501 1503 1505 1507 1509 1511 1512 1514 1516 1517 1519 1520 1522 1523 1526 1529 1532 1534 1534 1534 1534 1535 1536 1537 1537 1538 1538 1539 1540
1482 1484 1484 1484 1485 1486 1487 1488 1491 1494 1495 1497 1497 1498 1500 1501 1503 1506 1508 1509 1511 1512 1514 1515 1517 1519 1521 1523 1526 1530 1532 1532 1532 1532 1533 1533 1534 1535 1536 1536 1537 1538
1477 1478 1479 1479 1480 1482 1483 1485 1488 1491 1492 1494 1494 1495 1496 1498 1500 1503 1505 1506 1507 1509 1510 1512 1514 1516 1518 1521 1524 1527 1529 1530 1530 1531 1531 1531 1531 1532 1533 1534 1535 1535
1471 1473 1474 1475 1477 1478 1480 1482 1486 1488 1489 1491 1491 1491 1494 1496 1497 1500 1502 1504 1505 1506 1508 1510 1511 1513 1515 1518 1521 1524 1526 1527 1528 1529 1528 1528 1528 1528 1530 1531 1532 1532
1468 1469 1470 1473 1474 1476 1477 1480 1482 1484 1486 1487 1488 1489 1492 1494 1495 1497 1500 1502 1503 1504 1506 1507 1509 1510 1511 1515 1518 1520 1522 1523 1525 1525 1525 1526 1526 1526 1527 1528 1529 1529
1465 1466 1468 1470 1471 1473 1475 1477 1480 1481 1483 1485 1486 1488 1490 1491 1493 1495 1497 1498 1500 1501 1503 1505 1507 1508 1508 1511 1515 1516 1518 1520 1521 1522 1523 1523 1523 1524 1525 1525 1526 1526
1461 1463 1465 1467 1469 1472 1473 1475 1478 1480 1481 1483 1485 1486 1488 1489 1491 1493 1494 1495 1497 1498 1501 1503 1505 1506 1506 1509 1512 1513 1515 1517 1518 1519 1520 1520 1521 1521 1522 1523 1523 1523
1457 1459 1461 1464 1467 1469 1471 1473 1475 1477 1479 1481 1483 1485 1486 1487 1489 1491 1491 1493 1494 1496 1498 1500 1502 1503 1503 1506 1508 1510 1512 1514 1515 1515 1516 1518 1518 1519 1519 1519 1519 1520
1454 1456 1459 1462 1464 1466 1468 1470 1472 1474 1476 1478 1480 1483 1485 1486 1488 1489 1490 1491 1492 1493 1494 1497 1499 1499 1500 1502 1505 1507 1509 1511 1511 1512 1513 1514 1515 1515 1516 1517 1517 1518
1451 1453 1456 1459 1461 1462 1465 1467 1468 1470 1473 1474 1477 1480 1483 1486 1487 1487 1488 1489 1490 1492 1493 1494 1496 1496 1497 1499 1502 1504 1506 1508 1508 1510 1511 1511 1512 1513 1514 1515 1515 1515
1448 1451 1454 1456 1459 1461 1463 1465 1467 1469 1470 1471 1474 1477 1480 1483 1485 1485 1486 1487 1489 1491 1491 1492 1493 1493 1494 1496 1499 1501 1503 1505 1506 1507 1508 1509 1510 1511 1512 1512 1511 1511
1446 1449 1452 1455 1458 1460 1463 1465 1466 1468 1470 1470 1471 1474 1477 1480 1482 1483 1484 1486 1488 1489 1489 1489 1490 1490 1491 1494 1497 1499 1501 1503 1503 1504 1506 1508 1508 1509 1508 1508 1507 1507
Wind_Speed
28 26 24 23 22 19 18 16 15 14 12 10 8 7 7 7 7 8 8 7 7 8 8 8 9 9 8 7 7 7 6 6 5 5 6 6 7 6 6 6 6 7
28 27 26 25 23 21 20 17 15 14 13 11 8 7 6 6 7 7 7 8 9 9 9 9 8 8 8 8 7 7 7 6 6 7 8 9 9 8 7 7 8 9
29 29 29 28 26 24 21 17 16 15 13 11 8 7 6 6 7 7 8 9 10 10 10 9 9 9 8 9 9 9 8 7 8 8 8 11 11 9 9 9 9 10
30 31 31 29 27 24 22 19 17 16 13 10 9 8 7 6 6 7 8 9 9 10 10 10 10 10 10 10 11 11 11 10 11 9 9 11 12 12 11 10 10 10
32 32 32 31 28 24 22 20 18 16 14 11 11 10 7 4 4 6 7 7 8 9 11 11 11 12 12 12 12 12 12 12 12 11 11 11 11 11 11 11 11 11
32 33 33 32 29 25 22 20 19 18 15 13 13 11 8 7 8 9 9 9 10 11 12 13 15 14 13 13 14 14 14 13 12 11 11 12 12 12 12 12 12 12
31 33 34 32 29 27 24 23 22 21 19 18 17 15 13 14 17 19 19 17 15 14 15 16 18 16 13 13 15 15 15 15 14 13 13 13 14 14 14 13 13 14
31 32 34 32 29 28 27 27 26 26 25 23 21 20 20 23 27 29 29 26 22 20 19 19 20 18 15 14 15 16 16 16 14 14 14 14 15 15 14 14 14 15
33 33 34 33 31 31 31 31 30 30 29 27 26 27 29 31 34 36 35 32 28 26 23 22 22 20 17 16 16 16 17 16 15 14 14 14 14 14 14 14 15 15
35 34 35 35 35 35 35 35 35 34 33 32 33 34 36 36 37 39 41 38 33 30 28 25 23 22 21 20 18 16 17 17 17 16 16 16 16 16 15 15 16 15
35 35 36 37 36 36 37 38 38 36 36 38 40 40 39 39 37 39 43 41 37 33 31 29 26 24 23 23 20 17 17 17 17 17 17 17 17 17 15 15 16 16
35 37 38 39 36 37 40 42 40 38 39 42 43 41 41 40 38 39 42 42 39 35 31 30 28 25 25 24 21 18 18 17 16 17 18 17 17 16 16 17 17 16
36 38 40 40 39 42 44 44 42 42 43 45 45 42 42 41 36 33 37 40 40 38 34 32 31 27 26 25 22 21 20 17 16 17 18 18 17 16 16 17 16 15
38 39 40 42 42 45 46 46 45 46 46 46 45 43 43 43 35 28 30 34 37 39 37 34 32 30 27 25 21 21 21 18 18 19 19 19 18 17 17 17 15 15
39 39 40 44 46 46 48 49 48 48 47 46 45 44 46 48 41 31 28 29 30 35 38 35 33 32 30 25 21 21 21 20 20 21 20 19 18 18 18 16 15 16
39 41 43 47 48 47 48 50 48 47 47 46 45 45 46 50 47 37 31 28 27 32 39 38 35 33 32 29 24 21 21 21 23 23 21 19 17 16 16 16 16 17
44 46 46 46 46 44 45 47 45 44 46 46 46 47 47 50 49 41 35 32 31 33 37 39 37 34 33 33 27 21 20 21 23 24 22 20 18 16 15 16 18 19
48 49 47 44 42 40 40 41 41 41 43 43 45 47 47 49 49 44 39 37 38 38 37 38 37 35 34 33 27 22 19 21 23 24 24 23 20 18 17 18 19 20
48 47 45 42 39 37 37 38 38 39 39 41 44 47 48 49 49 46 42 40 41 40 38 36 33 33 33 32 27 23 21 22 25 26 25 24 23 21 19 19 20 20
43 42 39 38 36 34 35 36 37 37 37 39 43 46 49 50 49 46 44 43 43 41 38 34 28 28 30 30 28 26 23 23 26 28 28 26 24 21 20 21 22 22
36 35 32 30 29 28 30 32 34 34 35 37 42 46 50 50 49 46 44 43 42 39 36 31 25 25 28 29 29 27 24 23 25 28 29 27 24 21 20 22 24 24
32 30 28 26 24 24 26 27 28 30 31 34 39 44 46 47 47 45 43 42 40 37 34 28 24 26 29 29 29 26 23 24 26 27 29 27 24 23 22 23 26 24
31 30 27 24 23 23 24 23 23 25 27 29 34 39 38 37 38 38 37 38 36 33 32 27 23 26 28 27 27 25 24 25 26 26 27 27 26 26 25 24 25 25
28 26 24 23 24 24 23 22 23 24 23 24 28 32 29 25 23 26 30 32 29 26 26 24 22 25 27 26 26 25 24 24 24 24 25 25 26 27 25 23 25 26
22 22 23 25 25 25 23 23 23 22 21 22 24 25 24 20 19 22 26 25 21 19 21 20 19 22 25 25 23 22 22 22 22 21 22 23 23 23 22 22 24 25
20 22 25 26 26 25 23 22 21 18 17 19 19 17 17 18 18 19 18 16 16 17 17 15 15 19 23 21 19 18 18 19 20 20 20 20 21 21 21 21 21 20
Wind_Direction
213 212 210 209 208 208 205 202 205 204 193 193 203 200 198 197 196 206 214 223 230 232 233 233 232 230 220 220 228 216 210 214 216 236 247 241 240 241 245 253 255 258
212 212 212 210 209 211 209 203 202 201 197 196 195 191 193 192 196 204 208 219 227 228 230 229 230 230 216 213 228 229 223 219 218 231 245 249 247 240 245 257 262 265
212 213 214 212 210 211 208 202 202 203 202 200 194 191 192 187 193 204 210 220 227 225 225 222 222 227 220 212 219 225 224 225 229 231 242 255 261 254 245 247 254 260
212 215 216 215 211 209 207 200 200 203 199 191 192 197 196 190 196 209 221 230 226 220 222 224 221 225 228 224 222 223 221 224 230 229 235 251 265 270 263 254 253 252
211 216 216 216 212 206 204 200 200 201 193 184 195 204 204 213 231 234 236 234 224 220 223 226 223 222 227 230 229 228 226 227 230 230 234 243 254 265 271 268 265 262
209 214 216 217 213 204 200 200 200 197 188 187 202 208 215 243 261 262 250 233 223 221 221 222 225 228 230 230 231 233 231 231 232 232 238 243 245 247 251 257 259 259
207 213 216 215 211 206 203 200 200 199 194 196 205 209 220 241 252 254 249 239 229 226 226 225 227 234 238 231 232 237 236 236 235 234 236 239 242 243 243 246 248 250
206 210 214 213 210 209 208 206 209 210 207 207 212 218 230 243 248 249 247 241 236 234 234 229 229 236 240 233 233 236 237 239 241 241 242 241 242 245 245 245 244 244
206 208 210 209 207 208 209 211 214 215 214 216 222 229 239 245 248 250 249 245 242 241 238 231 230 235 238 236 237 237 236 238 238 239 242 243 244 243 242 244 245 245
208 207 207 207 207 208 211 212 215 217 217 220 227 236 245 249 251 253 252 248 246 246 242 237 234 236 239 242 241 236 237 240 239 239 239 241 245 243 239 241 245 247
208 204 204 208 206 205 211 215 217 218 218 222 230 238 245 248 252 256 254 250 248 248 247 244 242 240 243 248 244 235 238 242 242 243 244 246 251 247 239 238 241 245
208 204 207 213 206 200 209 217 218 216 220 228 235 240 244 246 251 257 257 253 249 249 250 248 245 242 243 249 243 232 237 243 243 243 245 249 253 248 241 241 242 246
210 210 214 218 210 204 212 219 219 219 225 235 239 241 242 243 247 254 258 256 252 251 253 253 250 245 243 245 240 231 235 242 243 242 242 246 250 246 242 245 249 254
210 211 213 215 211 211 217 222 223 224 230 237 240 242 242 240 242 249 255 257 255 254 253 253 251 247 242 240 237 232 235 240 243 243 243 247 250 246 243 243 247 251
212 208 209 212 213 217 222 226 228 230 233 236 240 243 243 242 242 244 248 255 259 257 253 250 250 248 243 241 237 233 235 239 242 245 248 251 253 251 247 244 243 248
213 209 209 212 216 221 227 230 230 232 234 236 239 243 243 244 243 240 242 251 258 257 254 252 251 250 247 246 242 238 240 242 245 247 249 250 253 253 250 248 246 247
207 209 213 215 219 223 228 231 231 233 235 237 241 244 242 242 242 239 238 245 250 252 254 254 254 252 252 251 249 244 243 245 247 248 246 245 246 247 249 251 250 248
206 209 215 220 224 227 230 232 231 232 235 237 242 244 240 240 242 240 239 243 246 249 253 254 255 255 254 252 248 245 245 246 246 246 245 243 241 241 244 247 250 254
206 211 217 224 230 233 233 231 229 230 234 237 239 239 238 239 241 241 240 242 245 248 250 252 253 254 255 251 245 244 246 245 244 244 244 245 245 243 243 247 252 258
211 218 224 227 230 232 231 229 228 230 233 235 236 236 236 238 239 239 240 243 245 246 248 249 247 246 251 251 246 245 246 245 244 245 244 245 245 245 248 253 257 260
214 218 222 224 226 228 230 230 230 231 232 234 235 235 235 237 237 238 240 242 243 245 248 249 242 237 246 253 251 250 248 244 243 243 242 243 246 249 254 257 258 259
209 212 215 216 217 221 225 228 228 229 232 234 234 234 235 237 238 238 240 243 245 247 250 251 245 243 250 257 256 251 244 241 242 242 241 243 246 250 255 257 259 264
207 208 208 205 205 209 212 214 216 220 224 230 234 234 233 236 238 238 241 246 249 253 255 254 246 246 253 259 256 247 239 240 243 242 243 245 247 251 256 262 268 273
198 195 192 191 193 194 194 196 200 206 211 218 227 231 229 228 232 236 242 249 252 253 255 250 241 243 252 258 255 247 239 241 245 246 248 249 248 251 258 268 275 278
178 175 178 183 184 182 184 189 192 196 203 208 215 222 224 223 227 234 241 246 247 243 244 242 236 241 251 253 250 245 241 242 244 244 246 250 252 256 263 269 272 274
171 174 176 177 177 179 183 188 189 190 196 199 200 206 212 215 220 227 231 233 235 238 241 239 232 236 244 245 241 240 236 233 237 242 247 251 254 259 264 265 265 266